sat.trackr.live / text

‹ back to catalog

QIANFAN-214

NORAD 69813 · 2026-153P

PAYLOAD ACTIVE UNKNOWN

§ Identity

Operator
Country
PRC
Launch date
2026-07-04
Launch site
TAISC
Launch vehicle
Mass (kg)
RCS (m²)

External: N2YO · Heavens-Above · Gunter

§ Orbital elements

Epoch: 2026-09-19T21:40:08.658336Z

Period
102.53 min
Inclination
88.9972°
Eccentricity
0.0009853
Mean motion
14.04513462 rev/d
Perigee alt
871.1 km
Apogee alt
885.4 km
Semi-major
7,256.3 km
B*
-1.2163e+0
RAAN
351.4608°
Arg perigee
315.8657°
Mean anomaly
44.1737°
Rev number
1,100

§ Raw data

QIANFAN-2141 69813U 26153P   26262.90287799 -.01795309  00000+0 -12163+1 0  99912 69813  88.9972 351.4608 0009853 315.8657  44.1737 14.04513462 11007

JSON: /api/v1/satellites/69813 · /tle

For live sub-satellite position, see the globe view (requires WebGL).

§ Visibility from observer

Set your observer location to see the next 7 days of passes ≥ 10°. The values pass through the URL so the page stays shareable.

No JS? Fill the form by hand. The geolocation button needs JavaScript.